Gadsden, AL

4:01 AM CDT on September 18, 2019 (GMT -0500)
Gadsden Municipal

Weather History for KGAD - August, 2019

Change the Weather History Date:

Monday, August 19, 2019

  Actual Average Record
Temperature  
Mean Temperature 83 °F -  
Max Temperature 96 °F 86 °F 99 °F (1936)
Min Temperature 72 °F 65 °F 61 °F (1943)
Cooling Degree Days 18    
Growing Degree Days 33 (Base 50)    
Moisture  
Dew Point 74 °F    
Average Humidity 83    
Maximum Humidity 100    
Minimum Humidity 46    
Precipitation  
Precipitation 0.03 in - - ()
Sea Level Pressure  
Sea Level Pressure 30.04 in    
Wind  
Wind Speed 3 mph (NNE)    
Max Wind Speed 20 mph    
Max Gust Speed -    
Visibility 9 miles    
Events Rain , Thunderstorm    
Averages and records for this station are not official NWS values.
T = Trace of Precipitation, MM = Missing Value Source: NWS Daily Summary

Daily Weather History Graph

Daily Weather History Graph

Search for Another Location

Airport or City:

Astronomy

Aug. 19, 2019 Rise Set
Actual Time 6:08 AM CDT 7:26 PM CDT
Civil Twilight 5:42 AM CDT 7:52 PM CDT
Nautical Twilight 5:11 AM CDT 8:24 PM CDT
Astronomical Twilight 4:38 AM CDT 8:56 PM CDT
Moon 9:58 PM CDT (8/19) 9:40 AM CDT (8/19)
Length of Visible Light 14h 10m
Length of Day
13h 18m
Waning Gibbous, 85% of the Moon is Illuminated
Aug 19
Waning Gibbous
Aug 23
Last Quarter
Aug 30
New
Sep 5
First Quarter
Sep 13
Full

Hourly Weather History & Observations

Time (CDT) Temp. Heat Index Dew Point Humidity Pressure Visibility Wind Dir Wind Speed Gust Speed Precip Events Conditions
12:56 AM 75.0 °F - 73.9 °F 96% 29.99 in 10.0 mi SW 3.5 mph - N/A   Clear
1:56 AM 73.9 °F - 73.9 °F 100% 30.00 in 10.0 mi Calm Calm - N/A   Clear
2:56 AM 73.0 °F - 73.0 °F 100% 30.00 in 10.0 mi Calm Calm - N/A   Clear
3:56 AM 75.0 °F - 75.0 °F 100% 30.00 in 10.0 mi Calm Calm - N/A   Clear
4:56 AM 73.9 °F - 73.9 °F 100% 30.01 in 10.0 mi Calm Calm - N/A   Clear
5:56 AM 73.0 °F - 73.0 °F 100% 30.04 in 10.0 mi Calm Calm - N/A   Partly Cloudy
6:56 AM 75.0 °F - 75.0 °F 100% 30.05 in 10.0 mi Calm Calm - N/A   Clear
7:56 AM 78.1 °F - 77.0 °F 96% 30.06 in 10.0 mi Calm Calm - N/A   Clear
8:56 AM 81.0 °F 88.6 °F 78.1 °F 91% 30.06 in 10.0 mi NNE 3.5 mph - N/A   Clear
9:56 AM 84.9 °F 93.3 °F 75.0 °F 72% 30.06 in 8.0 mi Variable 3.5 mph - N/A   Clear
10:56 AM 89.1 °F 99.1 °F 75.0 °F 63% 30.07 in 8.0 mi Calm Calm - N/A   Clear
11:56 AM 91.0 °F 102.9 °F 75.9 °F 61% 30.07 in 3.0 mi Variable 3.5 mph - N/A   Haze
12:56 PM 91.9 °F 103.2 °F 75.0 °F 58% 30.05 in 10.0 mi SSE 8.1 mph - N/A   Clear
1:56 PM 93.9 °F 104.0 °F 73.9 °F 52% 30.02 in 10.0 mi Variable 3.5 mph - N/A   Clear
2:51 PM 93.2 °F 100.5 °F 71.6 °F 49% 30.00 in 10.0 mi SSW 4.6 mph - N/A Thunderstorm Partly Cloudy
2:56 PM 93.9 °F 100.3 °F 70.0 °F 46% 29.99 in 10.0 mi Calm Calm - N/A Thunderstorm Scattered Clouds
3:45 PM 84.2 °F 87.3 °F 68.0 °F 58% 30.00 in 2.5 mi NNE 19.6 mph - N/A Thunderstorm Unknown
3:52 PM 80.6 °F 84.6 °F 71.6 °F 74% 30.01 in 5.0 mi NNE 15.0 mph - 0.01 in Rain , Thunderstorm Thunderstorms and Rain
3:56 PM 78.1 °F - 72.0 °F 81% 30.01 in 9.0 mi NNE 8.1 mph - 0.02 in Rain , Thunderstorm Thunderstorms and Rain
4:29 PM 77.0 °F - 73.4 °F 89% 30.01 in 10.0 mi NE 4.6 mph - 0.01 in Rain Light Rain
4:56 PM 78.1 °F - 75.9 °F 93% 30.04 in 10.0 mi NNE 3.5 mph - 0.01 in Rain Light Rain
5:56 PM 78.1 °F - 77.0 °F 96% 30.01 in 10.0 mi WNW 4.6 mph - 0.00 in   Clear
6:56 PM 78.1 °F - 78.1 °F 100% 30.04 in 10.0 mi ENE 3.5 mph - N/A   Clear
7:56 PM 75.0 °F - 75.0 °F 100% 30.05 in 10.0 mi Calm Calm - N/A   Clear
8:56 PM 75.0 °F - 75.0 °F 100% 30.07 in 10.0 mi Calm Calm - N/A   Clear
9:56 PM 73.9 °F - - N/A% 30.10 in 10.0 mi Calm Calm - N/A   Clear
10:56 PM 73.0 °F - - N/A% 30.09 in 8.0 mi NNE 4.6 mph - N/A   Clear
11:56 PM 72.0 °F - - N/A% 30.09 in 10.0 mi NW 3.5 mph - N/A   Clear